Location: ?
(35.4064°N, 139.3593°E)
Time: 20:01:07
(UTC+00:00)

USA 267 - Pass Details

Date: 18 April 2024
Orbit: 1100 x 1107 km, 123.0° (Epoch: 21 May)

Event Time Altitude Azimuth Distance (km) Brightness Sun altitude
Rises 17:09:43 0° 131° (SE) 3,903 6.2 -31.8°
Reaches altitude 10° 17:12:11 10° 130° (SE) 2,947 5.5 -31.4°
Maximum altitude 17:18:42 80° 45° (NE) 1,117 3.2 -30.5°
Drops below altitude 10° 17:25:14 10° 319° (NW) 2,959 5.5 -29.5°
Sets 17:27:43 0° 318° (NW) 3,919 6.2 -29.1°
